Madera, CA

8:03 PM PDT on July 20, 2017 (GMT -0700)
Madera Municipal

Weather History for KMAE - April, 2014

Change the Weather History Date:

Monday, April 14, 2014

  Actual Average Record
Temperature  
Mean Temperature 67 °F 59 °F  
Max Temperature 85 °F 74 °F 90 °F (2002)
Min Temperature 49 °F 45 °F 33 °F (2005)
Degree Days  
Heating Degree Days 0    
Month to date heating degree days 66  
Since 1 July heating degree days 2083  
Cooling Degree Days 2    
Month to date cooling degree days 27  
Year to date cooling degree days 27  
Growing Degree Days 16 (Base 50)    
Moisture  
Dew Point 45 °F    
Average Humidity 58    
Maximum Humidity 93    
Minimum Humidity 22    
Precipitation  
Precipitation 0.00 in 0.03 in 0.41 in (2006)
Month to date precipitation 0.02 0.45  
Year to date precipitation 3.07 6.83  
Since 1 July precipitation 4.04  
Snow  
Snow 0.00 in - - ()
Month to date snowfall 0.0  
Since 1 July snowfall 0.0  
Snow Depth 0.00 in    
Sea Level Pressure  
Sea Level Pressure 30.02 in    
Wind  
Wind Speed 3 mph (WSW)    
Max Wind Speed 16 mph    
Max Gust Speed 22 mph    
Visibility 10 miles    
Events      
T = Trace of Precipitation, MM = Missing Value Source: NWS Daily Summary

Daily Weather History Graph

Daily Weather History Graph

Search for Another Location

Airport or City:

Trip Planner

Search our weather history database for the weather conditions in past years. The results will help you decide how hot, cold, wet, or windy it might be!

Date:

Astronomy

Apr. 14, 2014 Rise Set
Actual Time 6:27 AM PDT 7:34 PM PDT
Civil Twilight 6:00 AM PDT 8:01 PM PDT
Nautical Twilight 5:28 AM PDT 8:33 PM PDT
Astronomical Twilight 4:55 AM PDT 9:06 PM PDT
Moon 7:18 PM PDT (4/14) 6:01 AM PDT (4/14)
Length of Visible Light 14h 00m
Length of Day
13h 06m
Full, 100% of the Moon is Illuminated
Apr 14
Full
Apr 15
Full
Apr 22
Last Quarter
Apr 28
New
May 6
First Quarter

Hourly Weather History & Observations

Time (PDT) Temp. Dew Point Humidity Pressure Visibility Wind Dir Wind Speed Gust Speed Precip Events Conditions
12:53 AM 59.0 °F 48.9 °F 69% 30.01 in 10.0 mi Calm Calm - N/A   Clear
2:53 AM 54.0 °F 48.9 °F 83% 30.00 in 10.0 mi Calm Calm - N/A   Clear
3:53 AM 53.1 °F 46.9 °F 80% 30.01 in 10.0 mi Calm Calm - N/A   Clear
5:53 AM 52.0 °F 46.9 °F 83% 30.02 in 10.0 mi Calm Calm - N/A   Clear
6:53 AM 48.9 °F 46.0 °F 90% 30.04 in 8.0 mi Calm Calm - N/A   Clear
7:53 AM 57.0 °F 50.0 °F 77% 30.06 in 9.0 mi Calm Calm - N/A   Clear
8:53 AM 63.0 °F 50.0 °F 63% 30.07 in 10.0 mi Calm Calm - N/A   Clear
9:53 AM 69.1 °F 52.0 °F 54% 30.07 in 10.0 mi SSW 4.6 mph - N/A   Clear
11:53 AM 75.9 °F 46.0 °F 35% 30.08 in 10.0 mi WSW 4.6 mph - N/A   Clear
12:53 PM 80.1 °F 42.1 °F 26% 30.06 in 10.0 mi South 4.6 mph - N/A   Clear
1:53 PM 81.0 °F 42.1 °F 25% 30.05 in 10.0 mi Calm Calm - N/A   Clear
2:53 PM 82.0 °F 39.0 °F 22% 30.03 in 10.0 mi Variable 4.6 mph - N/A   Clear
3:53 PM 84.9 °F 42.1 °F 22% 30.01 in 10.0 mi SW 6.9 mph - N/A   Clear
4:53 PM 84.0 °F 41.0 °F 22% 30.00 in 10.0 mi West 6.9 mph - N/A   Clear
5:53 PM 82.9 °F 41.0 °F 23% 29.99 in 10.0 mi WNW 6.9 mph - N/A   Clear
6:53 PM 81.0 °F 42.1 °F 25% 29.99 in 10.0 mi WNW 5.8 mph - N/A   Clear
7:53 PM 73.0 °F 46.0 °F 38% 29.99 in 10.0 mi NW 8.1 mph - N/A   Clear
8:53 PM 70.0 °F 43.0 °F 38% 30.00 in 10.0 mi North - - N/A   Clear
9:53 PM 68.0 °F 45.0 °F 43% 30.01 in 10.0 mi North - - N/A   Clear
10:53 PM 64.9 °F 46.0 °F 50% 30.01 in 10.0 mi North - - N/A   Clear
11:53 PM 61.0 °F 46.0 °F 58% 30.01 in 10.0 mi North - - N/A   Clear